• In Deutschland
  • Länderverzeichnis
  • Für 7 Tage
  • Wassertemperatur
  • Satellitenkarten
  • Wetterkarte
  • Widgets
  • user-avatar
    Anmelden

    Stündliche Wetter São José do Egito

    Heute, 17 Januar, Mittwoch

    Zeit Temperatur Niederschläge Wind Luftdruck Luftfeuchtigkeit
    00:00 +24°C° 0 mm 6 m/S 710 mmHg 66%
    01:00 +23°C° 0 mm 6 m/S 710 mmHg 69%
    02:00 +23°C° 0 mm 5 m/S 710 mmHg 71%
    03:00 +22°C° 0 mm 5 m/S 709 mmHg 73%
    04:00 +22°C° 0 mm 4 m/S 709 mmHg 75%
    05:00 +22°C° 0 mm 4 m/S 709 mmHg 76%
    06:00 +22°C° 0 mm 4 m/S 709 mmHg 77%
    07:00 +21°C° 0 mm 4 m/S 710 mmHg 78%
    08:00 +25°C° 0 mm 5 m/S 710 mmHg 68%
    09:00 +27°C° 0 mm 6 m/S 710 mmHg 58%
    10:00 +30°C° 0 mm 6 m/S 711 mmHg 48%
    11:00 +32°C° 0 mm 6 m/S 711 mmHg 43%
    12:00 +34°C° 0 mm 6 m/S 710 mmHg 38%
    13:00 +35°C° 0 mm 6 m/S 710 mmHg 34%
    14:00 +35°C° 0 mm 6 m/S 710 mmHg 34%
    15:00 +36°C° 0 mm 6 m/S 709 mmHg 34%
    16:00 +36°C° 0 mm 6 m/S 709 mmHg 34%
    17:00 +34°C° 0 mm 6 m/S 709 mmHg 40%
    18:00 +32°C° 0 mm 5 m/S 709 mmHg 45%
    19:00 +30°C° 0 mm 5 m/S 709 mmHg 50%
    20:00 +29°C° 0 mm 5 m/S 709 mmHg 57%
    21:00 +27°C° 0 mm 6 m/S 709 mmHg 63%
    22:00 +26°C° 0 mm 6 m/S 710 mmHg 70%
    23:00 +26°C° 0 mm 6 m/S 710 mmHg 73%

    Morgen, 18 Januar, Donnerstag

    Zeit Temperatur Niederschläge Wind Luftdruck Luftfeuchtigkeit
    00:00 +25°C° 0 mm 5 m/S 710 mmHg 76%
    01:00 +23°C° 0 mm 5 m/S 710 mmHg 79%
    02:00 +23°C° 0 mm 5 m/S 710 mmHg 79%
    03:00 +23°C° 0 mm 4 m/S 709 mmHg 80%
    04:00 +23°C° 0 mm 4 m/S 709 mmHg 80%
    05:00 +23°C° 0 mm 4 m/S 709 mmHg 79%
    06:00 +23°C° 0 mm 4 m/S 710 mmHg 78%
    07:00 +23°C° 0 mm 4 m/S 710 mmHg 78%
    08:00 +26°C° 0 mm 4 m/S 710 mmHg 69%
    09:00 +28°C° 0 mm 5 m/S 711 mmHg 60%
    10:00 +30°C° 0 mm 5 m/S 711 mmHg 51%
    11:00 +32°C° 0 mm 5 m/S 711 mmHg 46%
    12:00 +33°C° 0 mm 5 m/S 711 mmHg 41%
    13:00 +35°C° 0 mm 5 m/S 710 mmHg 36%
    14:00 +35°C° 0 mm 5 m/S 710 mmHg 37%
    15:00 +34°C° 0 mm 5 m/S 709 mmHg 38%
    16:00 +34°C° 0 mm 5 m/S 709 mmHg 39%
    17:00 +33°C° 0,1 mm 5 m/S 709 mmHg 44%
    18:00 +30°C° 0,1 mm 5 m/S 709 mmHg 50%
    19:00 +29°C° 0,1 mm 5 m/S 709 mmHg 55%
    20:00 +28°C° 0,2 mm 5 m/S 709 mmHg 59%
    21:00 +27°C° 0,2 mm 5 m/S 710 mmHg 63%
    22:00 +26°C° 0,2 mm 5 m/S 710 mmHg 66%
    23:00 +26°C° 0 mm 5 m/S 710 mmHg 69%

    übermorgen, 19 Januar, Freitag

    Zeit Temperatur Niederschläge Wind Luftdruck Luftfeuchtigkeit
    00:00 +25°C° 0 mm 5 m/S 710 mmHg 72%
    01:00 +23°C° 0 mm 4 m/S 710 mmHg 75%
    02:00 +23°C° 0 mm 4 m/S 710 mmHg 77%
    03:00 +22°C° 0 mm 3 m/S 709 mmHg 80%
    04:00 +22°C° 0 mm 3 m/S 709 mmHg 83%
    05:00 +22°C° 0 mm 3 m/S 709 mmHg 84%
    06:00 +23°C° 0 mm 2 m/S 709 mmHg 85%
    07:00 +23°C° 0 mm 2 m/S 710 mmHg 86%
    08:00 +25°C° 0 mm 3 m/S 710 mmHg 75%
    09:00 +27°C° 0 mm 3 m/S 711 mmHg 64%
    10:00 +29°C° 0 mm 4 m/S 712 mmHg 53%
    11:00 +32°C° 0 mm 4 m/S 711 mmHg 49%
    12:00 +33°C° 0 mm 4 m/S 711 mmHg 44%
    13:00 +34°C° 0 mm 4 m/S 710 mmHg 40%
    14:00 +34°C° 0 mm 4 m/S 710 mmHg 41%
    15:00 +34°C° 0 mm 3 m/S 709 mmHg 42%
    16:00 +33°C° 0 mm 3 m/S 708 mmHg 43%
    17:00 +31°C° 0,8 mm 3 m/S 709 mmHg 49%
    18:00 +29°C° 0,8 mm 3 m/S 709 mmHg 56%
    19:00 +28°C° 0,8 mm 3 m/S 709 mmHg 63%
    20:00 +27°C° 1,2 mm 3 m/S 709 mmHg 68%
    21:00 +26°C° 1,2 mm 4 m/S 710 mmHg 74%
    22:00 +25°C° 1,2 mm 4 m/S 710 mmHg 79%
    23:00 +25°C° 0,5 mm 4 m/S 710 mmHg 81%

    20 Januar, Samstag

    Zeit Temperatur Niederschläge Wind Luftdruck Luftfeuchtigkeit
    00:00 +23°C° 0,5 mm 4 m/S 710 mmHg 83%
    01:00 +24°C° 0,5 mm 3 m/S 710 mmHg 85%
    02:00 +24°C° 0,1 mm 3 m/S 709 mmHg 85%
    03:00 +24°C° 0,1 mm 3 m/S 709 mmHg 86%
    04:00 +22°C° 0,1 mm 3 m/S 708 mmHg 86%
    05:00 +22°C° 0 mm 3 m/S 709 mmHg 87%
    06:00 +22°C° 0 mm 3 m/S 709 mmHg 88%
    07:00 +23°C° 0 mm 2 m/S 709 mmHg 88%
    08:00 +25°C° 0 mm 3 m/S 710 mmHg 79%
    09:00 +27°C° 0 mm 3 m/S 711 mmHg 70%
    10:00 +28°C° 0 mm 3 m/S 711 mmHg 61%
    11:00 +30°C° 0,2 mm 3 m/S 711 mmHg 55%
    12:00 +32°C° 0,2 mm 4 m/S 710 mmHg 50%
    13:00 +34°C° 0,2 mm 4 m/S 710 mmHg 44%
    14:00 +34°C° 0 mm 3 m/S 709 mmHg 44%
    15:00 +33°C° 0 mm 3 m/S 709 mmHg 44%
    16:00 +33°C° 0 mm 3 m/S 708 mmHg 44%
    17:00 +31°C° 0,5 mm 3 m/S 708 mmHg 50%
    18:00 +30°C° 0,5 mm 3 m/S 708 mmHg 56%
    19:00 +28°C° 0,5 mm 4 m/S 708 mmHg 61%
    20:00 +27°C° 0,8 mm 4 m/S 709 mmHg 67%
    21:00 +26°C° 0,8 mm 4 m/S 709 mmHg 72%
    22:00 +25°C° 0,8 mm 4 m/S 710 mmHg 77%
    23:00 +25°C° 0 mm 3 m/S 710 mmHg 80%

    21 Januar, Sonntag

    Zeit Temperatur Niederschläge Wind Luftdruck Luftfeuchtigkeit
    00:00 +25°C° 0 mm 3 m/S 709 mmHg 82%
    01:00 +24°C° 0 mm 3 m/S 709 mmHg 85%
    02:00 +24°C° 0,1 mm 3 m/S 709 mmHg 85%
    03:00 +24°C° 0,1 mm 3 m/S 708 mmHg 86%
    04:00 +24°C° 0,1 mm 3 m/S 708 mmHg 86%
    05:00 +24°C° 0 mm 3 m/S 709 mmHg 86%
    06:00 +24°C° 0 mm 3 m/S 709 mmHg 86%
    07:00 +23°C° 0 mm 2 m/S 709 mmHg 86%
    08:00 +25°C° 0 mm 3 m/S 710 mmHg 78%
    09:00 +26°C° 0 mm 3 m/S 710 mmHg 71%
    10:00 +28°C° 0 mm 4 m/S 710 mmHg 64%
    11:00 +29°C° 0 mm 4 m/S 710 mmHg 56%
    12:00 +32°C° 0 mm 4 m/S 710 mmHg 49%
    13:00 +34°C° 0 mm 4 m/S 709 mmHg 41%
    14:00 +34°C° 0 mm 4 m/S 709 mmHg 39%
    15:00 +34°C° 0 mm 4 m/S 708 mmHg 37%
    16:00 +35°C° 0 mm 4 m/S 708 mmHg 35%
    17:00 +33°C° 0 mm 4 m/S 708 mmHg 39%
    18:00 +32°C° 0 mm 4 m/S 708 mmHg 43%
    19:00 +30°C° 0 mm 4 m/S 708 mmHg 47%
    20:00 +29°C° 0 mm 4 m/S 708 mmHg 54%
    21:00 +28°C° 0 mm 5 m/S 709 mmHg 61%
    22:00 +26°C° 0 mm 5 m/S 709 mmHg 68%
    23:00 +26°C° 0 mm 5 m/S 709 mmHg 73%

    22 Januar, Montag

    Zeit Temperatur Niederschläge Wind Luftdruck Luftfeuchtigkeit
    00:00 +25°C° 0 mm 4 m/S 708 mmHg 77%
    01:00 +23°C° 0 mm 4 m/S 708 mmHg 82%
    02:00 +23°C° 0 mm 4 m/S 708 mmHg 84%
    03:00 +22°C° 0 mm 3 m/S 708 mmHg 85%
    04:00 +22°C° 0 mm 3 m/S 707 mmHg 87%
    05:00 +22°C° 0 mm 3 m/S 708 mmHg 85%
    06:00 +22°C° 0 mm 3 m/S 708 mmHg 84%
    07:00 +22°C° 0 mm 3 m/S 708 mmHg 83%
    08:00 +25°C° 0 mm 4 m/S 709 mmHg 74%
    09:00 +27°C° 0 mm 4 m/S 709 mmHg 66%
    10:00 +28°C° 0 mm 4 m/S 710 mmHg 57%
    11:00 +30°C° 0 mm 4 m/S 709 mmHg 51%
    12:00 +32°C° 0 mm 4 m/S 709 mmHg 45%
    13:00 +34°C° 0 mm 4 m/S 709 mmHg 38%
    14:00 +34°C° 0 mm 4 m/S 708 mmHg 37%
    15:00 +34°C° 0 mm 4 m/S 708 mmHg 35%
    16:00 +35°C° 0 mm 4 m/S 707 mmHg 33%
    17:00 +33°C° 0 mm 4 m/S 707 mmHg 37%
    18:00 +32°C° 0 mm 4 m/S 707 mmHg 41%
    19:00 +30°C° 0 mm 4 m/S 707 mmHg 44%
    20:00 +29°C° 0 mm 4 m/S 708 mmHg 51%
    21:00 +28°C° 0 mm 5 m/S 708 mmHg 59%
    22:00 +27°C° 0 mm 5 m/S 708 mmHg 66%
    23:00 +26°C° 0 mm 5 m/S 708 mmHg 70%
    Mehr zeigen